Terug naar catalogus

VULCAN CENTAUR R/B

ActiefVLEO
NORAD 58752·ROCKET BODY·🇺🇸 United States

Gelanceerd Jan 8, 2024 vanaf Cape Canaveral Space Force Station

Loading…

Volgende Passages (komende 24 uur)

TLE

VerouderdSource: Space-Track

Epoch: Jan 8, 2024, 07:34 UTC

1 58752U 24006B   24008.31572917  .00000148  00000-0  00000-0 0  9991
2 58752  30.0000  29.8668 0004000 321.7000 177.4980 15.23529836    08

Volg VULCAN CENTAUR R/B in realtime met AllMySat

Download on the App Store